Regional Weather Roundup
Issued by NWS

Home | Current Version | Previous Version | Graphics & Text | Print | Product List | Glossary On
Versions: 1 2 3 4 5 6 7 8 9 10 11 12 13 14 15 16 17 18 19 20 21 22 23 24 25 26 27 28 29 30 31 32 33 34 35 36 37 38 39 40 41 42 43 44 45 46 47 48 49 50
114
ASUS43 KDTX 251910
RWRMI
MICHIGAN HOURLY REGIONAL WEATHER ROUNDUP
NATIONAL WEATHER SERVICE DETROIT/PONTIAC MI
300 PM EDT MON SEP 25 2017

NOTE: "FAIR" INDICATES FEW OR NO CLOUDS BELOW 12,000 FEET WITH NO
SIGNIFICANT WEATHER AND/OR OBSTRUCTION TO VISIBILITY.

MIZ047>049-052>055-059>063-066>070-074>076-081>083-252000-
SOUTHEAST LOWER MICHIGAN

CITY           SKY/WX    TMP DP  RH WIND       PRES   REMARKS
ADRIAN         MOSUNNY   90  58  33 SW7       30.02F
ALMA           CLOUDY    88  48  25 SW6       30.02F
ANN ARBOR      MOSUNNY   90  61  37 VRB3      30.01F HX  90
BAD AXE        MOSUNNY   88  63  43 S7        30.03F
CARO           MOSUNNY   91  60  35 S7        30.01F HX  90
DETROIT CITY   SUNNY     88  67  49 S7        30.02F HX  91
DETROIT        MOSUNNY   89  66  46 VRB5      30.02F HX  91
FLINT          MOSUNNY   89  60  37 SW8       30.01F
GROSSE ILE     SUNNY     83  67  59 S5        30.01F
HILLSDALE      PTSUNNY   88  57  35 N3        30.03F
HOWELL         MOSUNNY   87  58  36 CALM      30.02F

CITY           SKY/WX    TMP DP  RH WIND       PRES   REMARKS
JACKSON        MOSUNNY   89  57  33 S9        30.02F
LAMBERTVILLE   MOSUNNY   91  61  37 CALM      30.01F HX  91
LANSING        MOSUNNY   88  55  32 E3        30.02F
LAPEER         FAIR      89  58  35 S3        30.03F
MASON          MOSUNNY   88  57  34 NE3       30.02F
MONROE         SUNNY     88  63  42 SE5       30.01F
MT. CLEMENS    PTSUNNY   87  69  54 E7        30.01F HX  90
PONTIAC        PTSUNNY   89  60  37 S10       30.01F
PORT HOPE        N/A     74  69  85 SE12      30.02F
PORT HURON     CLOUDY    90  64  43 E3        30.02F HX  91
TRI CITIES     MOSUNNY   89  63  41 W6        30.02F HX  90
MIDLAND        FAIR      89  60  37 SE3       30.01F
TROY           SUNNY     91  59  34 SW6       30.03F HX  90
SAGINAW HB     MOSUNNY   90  59  35 SW7       30.01F
$$
MIZ043>046-050>051-056>058-064>065-071>073-077>080-252000-
SOUTHWEST LOWER MICHIGAN

CITY           SKY/WX    TMP DP  RH WIND       PRES   REMARKS
BATTLE CREEK   MOSUNNY   88  54  31 CALM      30.03F
BENTON HARBOR  PTSUNNY   88  53  30 CALM      30.00F
BIG RAPIDS     MOSUNNY   88  47  23 SE5       30.00F
COLDWATER      SUNNY     88  51  28 CALM      30.02F
FREMONT        FAIR      90  51  26 SW6       29.99F
HOLLAND        PTSUNNY   88  55  32 SE6       30.00F
GRAND RAPIDS   CLOUDY    89  54  30 CALM      30.01F
IONIA          FAIR      89  52  28 CALM      30.01F
KALAMAZOO      PTSUNNY   88  47  24 CALM      30.02F
LUDINGTON      SUNNY     83  62  48 W6        29.98F
MARSHALL       MOSUNNY   88  57  34 S3        30.01F
MOUNT PLEASANT CLOUDY    90  50  25 SW5       30.00F
MUSKEGON       MOSUNNY   88  57  34 SW8       29.99F
SOUTH HAVEN    CLOUDY    88  51  27 CALM      30.00F
$$
MIZ016>042-252000-
NORTHERN LOWER MICHIGAN

CITY           SKY/WX    TMP DP  RH WIND       PRES   REMARKS
ALPENA         PTSUNNY   87  69  54 E7        30.01F HX  91
BEAVER ISLAND  SUNNY    N/A N/A N/A SW12      30.00
BELLAIRE       MOSUNNY   88  52  28 S3        29.98F
CADILLAC       SUNNY     90  42  19 SW8       30.02F
CHARLEVOIX     MOSUNNY   87  58  36 W8        30.02S
FRANKFORT      SUNNY     83  62  48 W6        29.99F
GAYLORD        MOSUNNY   85  49  28 SW8       30.03F
GRAYLING       SUNNY     87  48  25 SW5       30.03F
HARBOR SPRINGS MOSUNNY   87  58  37 SW3       29.99F
HOUGHTON LAKE  SUNNY     88  51  28 W6        30.03F
MANISTEE       SUNNY     90  60  36 W9        29.97F
OSCODA         PTSUNNY   85  65  51 SE7       30.02F
PELLSTON       MOSUNNY   88  58  36 W8        30.00F
ROGERS CITY    MOSUNNY   86  56  35 S5        30.01F
TRAVERSE CITY  PTSUNNY   92  50  23 VRB6      29.96F
$$
MIZ007>008-015-252000-
EASTERN UPPER MICHIGAN

CITY           SKY/WX    TMP DP  RH WIND       PRES   REMARKS
KINROSS        SUNNY     86  63  45 SW10      29.99F
MACKINAC ISLAN SUNNY     82  57  43 SW5       30.00F
NEWBERRY       HAZE      82  65  57 S7        29.98S VSB 1/2
S. S. MARIE    SUNNY     87  64  46 S9        29.97F
MUNISING         N/A     74  69  85 NE9       29.95F
$$
MIZ004>006-011>014-085-252000-
CENTRAL UPPER MICHIGAN

CITY           SKY/WX    TMP DP  RH WIND       PRES   REMARKS
MANISTIQUE     MOSUNNY   73  67  81 S9        29.98S
MENOMINEE      SUNNY     82  66  58 S9        29.95F HAZE
SAWYER-GWINN   SUNNY     79  66  65 E7        29.98F
$$
MIZ001>003-009>011-084-252000-
WESTERN UPPER MICHIGAN

CITY           SKY/WX    TMP DP  RH WIND       PRES   REMARKS
IRON MOUNTAIN  MOSUNNY   87  63  44 S8        29.94F
HOUGHTON       CLOUDY    70  61  73 W9        29.98S
COPPER HARBOR    N/A     67  61  81 N12       29.97S
IRONWOOD       CLOUDY    62  60  93 NW8       29.99F
$$

ABBREVIATIONS USED IN REMARKS
   TC - TEMPERATURE IN CELSIUS
  WCI - WIND CHILL INDEX
   HX - HEAT INDEX
  VSB - VISIBILITY





USA.gov is the U.S. government's official web portal to all federal, state and local government web resources and services.